| time (UTC) | temp F | wind direction | speed knots | gust knots | rain 1hr in | rain 24hr in | rain mn in | humidity % | barometer mb |
| 20260507031616 | 64 | 227 | 8.7 | 11.3 | 0.00 | 0.00 | 0.00 | 71 | 1029.6 |
| 20260507030714 | 64 | 225 | 9.6 | 13.0 | 0.00 | 0.00 | 0.00 | 70 | 1029.7 |
| 20260507025717 | 64 | 229 | 8.7 | 10.4 | 0.00 | 0.00 | 0.00 | 69 | 1029.7 |
| 20260507023715 | 65 | 220 | 7.8 | 10.4 | 0.00 | 0.00 | 0.00 | 68 | 1029.7 |
| 20260507022716 | 65 | 225 | 9.6 | 11.3 | 0.00 | 0.00 | 0.00 | 67 | 1029.7 |
| 20260507021717 | 65 | 225 | 8.7 | 10.4 | 0.00 | 0.00 | 0.00 | 66 | 1029.8 |
| 20260507020715 | 66 | 224 | 7.8 | 10.4 | 0.00 | 0.00 | 0.00 | 64 | 1029.9 |
| 20260507015715 | 66 | 225 | 9.6 | 13.9 | 0.00 | 0.00 | 0.00 | 64 | 1029.9 |
| 20260507014716 | 66 | 226 | 8.7 | 11.3 | 0.00 | 0.00 | 0.00 | 64 | 1029.9 |
| 20260507013715 | 66 | 225 | 11.3 | 13.9 | 0.00 | 0.00 | 0.00 | 63 | 1029.9 |
| 20260507011716 | 66 | 224 | 11.3 | 14.8 | 0.00 | 0.00 | 0.00 | 62 | 1029.7 |
| 20260507010718 | 66 | 227 | 10.4 | 13.9 | 0.00 | 0.00 | 0.00 | 62 | 1029.9 |
| 20260507005716 | 66 | 226 | 12.2 | 16.5 | 0.00 | 0.00 | 0.00 | 61 | 1029.7 |
| 20260507003716 | 66 | 222 | 13.0 | 18.2 | 0.00 | 0.00 | 0.00 | 60 | 1029.7 |
| 20260507002815 | 67 | 225 | 14.8 | 21.7 | 0.00 | 0.00 | 0.00 | 59 | 1029.5 |
| 20260507001816 | 67 | 221 | 13.0 | 20.0 | 0.00 | 0.00 | 0.00 | 58 | 1029.4 |
| 20260507000817 | 66 | 226 | 13.9 | 18.2 | 0.00 | 0.00 | 0.00 | 59 | 1029.6 |
| 20260507000718 | 66 | 220 | 16.5 | 20.0 | 0.00 | 0.00 | 0.00 | 59 | 1029.5 |
| 20260506235716 | 66 | 223 | 14.8 | 20.0 | 0.00 | 0.00 | 0.00 | 59 | 1029.4 |
| 20260506234717 | 66 | 229 | 13.9 | 18.2 | 0.00 | 0.00 | 0.00 | 59 | 1029.6 |
| 20260506233717 | 66 | 226 | 13.0 | 16.5 | 0.00 | 0.00 | 0.00 | 61 | 1029.5 |
| 20260506232716 | 66 | 227 | 12.2 | 16.5 | 0.00 | 0.00 | 0.00 | 61 | 1029.6 |
| 20260506231815 | 66 | 224 | 14.8 | 24.3 | 0.00 | 0.00 | 0.00 | 62 | 1029.6 |
| 20260506230815 | 66 | 227 | 13.0 | 16.5 | 0.00 | 0.00 | 0.00 | 62 | 1029.8 |
| 20260506225817 | 66 | 224 | 13.0 | 15.6 | 0.00 | 0.00 | 0.00 | 62 | 1029.7 |
| 20260506224915 | 66 | 223 | 13.9 | 19.1 | 0.00 | 0.00 | 0.00 | 62 | 1029.6 |
| 20260506223917 | 66 | 227 | 12.2 | 15.6 | 0.00 | 0.00 | 0.00 | 61 | 1029.8 |
| 20260506222917 | 66 | 225 | 15.6 | 22.6 | 0.00 | 0.00 | 0.00 | 63 | 1029.8 |
| 20260506221917 | 66 | 218 | 13.0 | 18.2 | 0.00 | 0.00 | 0.00 | 64 | 1029.7 |
| 20260506220916 | 66 | 226 | 12.2 | 18.2 | 0.00 | 0.00 | 0.00 | 63 | 1030.0 |
| 20260506215917 | 66 | 225 | 12.2 | 15.6 | 0.00 | 0.00 | 0.00 | 64 | 1029.9 |
| 20260506214916 | 66 | 230 | 13.0 | 16.5 | 0.00 | 0.00 | 0.00 | 64 | 1030.0 |
| 20260506213916 | 66 | 221 | 12.2 | 17.4 | 0.00 | 0.00 | 0.00 | 62 | 1030.1 |
| 20260506213015 | 66 | 218 | 11.3 | 19.1 | 0.00 | 0.00 | 0.00 | 63 | 1030.1 |
| 20260506212016 | 66 | 219 | 13.0 | 19.1 | 0.00 | 0.00 | 0.00 | 64 | 1030.3 |
| 20260506210115 | 65 | 226 | 9.6 | 13.0 | 0.00 | 0.00 | 0.00 | 67 | 1030.2 |
| 20260506205214 | 65 | 213 | 10.4 | 15.6 | 0.00 | 0.00 | 0.00 | 67 | 1030.1 |
| 20260506203215 | 65 | 218 | 12.2 | 15.6 | 0.00 | 0.00 | 0.00 | 67 | 1030.3 |
| 20260506202215 | 64 | 220 | 12.2 | 15.6 | 0.00 | 0.00 | 0.00 | 68 | 1030.3 |
| 20260506200215 | 64 | 212 | 10.4 | 14.8 | 0.00 | 0.00 | 0.00 | 69 | 1030.8 |
| 20260506194316 | 64 | 222 | 12.2 | 16.5 | 0.00 | 0.00 | 0.00 | 69 | 1030.8 |
| 20260506193316 | 63 | 224 | 8.7 | 12.2 | 0.00 | 0.00 | 0.00 | 71 | 1030.8 |
| 20260506192414 | 63 | 224 | 12.2 | 16.5 | 0.00 | 0.00 | 0.00 | 71 | 1030.6 |
| 20260506191416 | 63 | 227 | 11.3 | 15.6 | 0.00 | 0.00 | 0.00 | 72 | 1030.8 |
| 20260506190514 | 63 | 225 | 9.6 | 11.3 | 0.00 | 0.00 | 0.00 | 72 | 1030.8 |
| 20260506184516 | 63 | 229 | 12.2 | 15.6 | 0.00 | 0.00 | 0.00 | 73 | 1030.8 |
| 20260506183615 | 62 | 235 | 10.4 | 15.6 | 0.00 | 0.00 | 0.00 | 73 | 1030.7 |
| 20260506183517 | 62 | 225 | 13.0 | 19.1 | 0.00 | 0.00 | 0.00 | 74 | 1030.8 |
| 20260506181516 | 62 | 213 | 11.3 | 13.9 | 0.00 | 0.00 | 0.00 | 74 | 1030.9 |
| 20260506180515 | 62 | 227 | 9.6 | 14.8 | 0.00 | 0.00 | 0.00 | 75 | 1030.7 |
| 20260506175515 | 62 | 229 | 11.3 | 16.5 | 0.00 | 0.00 | 0.00 | 75 | 1030.5 |
| 20260506174614 | 61 | 232 | 10.4 | 14.8 | 0.00 | 0.00 | 0.00 | 76 | 1030.6 |
| 20260506173616 | 61 | 224 | 10.4 | 13.9 | 0.00 | 0.00 | 0.00 | 77 | 1030.8 |
| 20260506172616 | 60 | 224 | 9.6 | 14.8 | 0.00 | 0.00 | 0.00 | 78 | 1030.8 |
| 20260506171616 | 60 | 231 | 10.4 | 15.6 | 0.00 | 0.00 | 0.00 | 79 | 1030.7 |
| 20260506170616 | 60 | 218 | 7.8 | 10.4 | 0.00 | 0.00 | 0.00 | 79 | 1030.6 |
| 20260506165616 | 59 | 229 | 9.6 | 13.0 | 0.00 | 0.00 | 0.00 | 79 | 1030.5 |
| 20260506165517 | 59 | 226 | 11.3 | 14.8 | 0.00 | 0.00 | 0.00 | 78 | 1030.4 |
| 20260506164516 | 59 | 226 | 9.6 | 13.9 | 0.00 | 0.00 | 0.00 | 80 | 1030.2 |
| 20260506163614 | 59 | 205 | 8.7 | 12.2 | 0.00 | 0.00 | 0.00 | 80 | 1030.4 |
| 20260506162617 | 59 | 223 | 7.8 | 10.4 | 0.00 | 0.00 | 0.00 | 80 | 1030.3 |
| 20260506161615 | 59 | 234 | 8.7 | 11.3 | 0.00 | 0.00 | 0.00 | 81 | 1030.1 |
| 20260506155716 | 58 | 226 | 8.7 | 13.0 | 0.00 | 0.00 | 0.00 | 80 | 1030.6 |
| 20260506154714 | 58 | 224 | 11.3 | 16.5 | 0.00 | 0.00 | 0.00 | 81 | 1030.8 |
| 20260506153715 | 58 | 225 | 10.4 | 13.9 | 0.00 | 0.00 | 0.00 | 81 | 1030.8 |
| 20260506152814 | 58 | 226 | 12.2 | 17.4 | 0.00 | 0.00 | 0.00 | 81 | 1030.8 |
| 20260506151816 | 58 | 235 | 9.6 | 13.0 | 0.00 | 0.00 | 0.00 | 81 | 1030.7 |
| 20260506145914 | 58 | 222 | 9.6 | 15.6 | 0.00 | 0.00 | 0.00 | 80 | 1030.3 |
| 20260506144915 | 58 | 225 | 9.6 | 14.8 | 0.00 | 0.00 | 0.00 | 82 | 1030.0 |
| 20260506143914 | 58 | 222 | 8.7 | 13.0 | 0.00 | 0.00 | 0.00 | 82 | 1030.0 |
| 20260506142917 | 58 | 223 | 5.2 | 7.8 | 0.00 | 0.00 | 0.00 | 82 | 1029.9 |
| 20260506141915 | 58 | 222 | 6.1 | 9.6 | 0.00 | 0.00 | 0.00 | 82 | 1029.9 |
| 20260506140916 | 58 | 210 | 7.8 | 12.2 | 0.00 | 0.00 | 0.00 | 83 | 1029.8 |
| 20260506133918 | 58 | 225 | 7.8 | 11.3 | 0.00 | 0.00 | 0.00 | 83 | 1029.7 |
| 20260506133815 | 58 | 223 | 6.1 | 7.8 | 0.00 | 0.00 | 0.00 | 83 | 1029.6 |
| 20260506132816 | 57 | 209 | 3.5 | 7.0 | 0.00 | 0.00 | 0.00 | 83 | 1029.6 |
| 20260506131817 | 58 | 216 | 5.2 | 9.6 | 0.00 | 0.00 | 0.00 | 82 | 1029.5 |
| 20260506130815 | 58 | 217 | 7.8 | 12.2 | 0.00 | 0.00 | 0.00 | 82 | 1029.6 |
| 20260506125815 | 58 | 218 | 7.8 | 10.4 | 0.00 | 0.00 | 0.00 | 82 | 1029.5 |
| 20260506125716 | 58 | 218 | 7.8 | 10.4 | 0.00 | 0.00 | 0.00 | 82 | 1029.5 |
| 20260506124716 | 58 | 218 | 4.3 | 6.1 | 0.00 | 0.00 | 0.00 | 82 | 1029.6 |
| 20260506123716 | 58 | 217 | 7.0 | 9.6 | 0.00 | 0.00 | 0.00 | 82 | 1029.6 |
| 20260506122717 | 58 | 224 | 6.1 | 7.8 | 0.00 | 0.00 | 0.00 | 81 | 1029.5 |
| 20260506120714 | 59 | 221 | 6.1 | 10.4 | 0.00 | 0.00 | 0.00 | 81 | 1029.1 |
| 20260506115718 | 59 | 224 | 8.7 | 10.4 | 0.00 | 0.00 | 0.00 | 80 | 1029.2 |
| 20260506114715 | 59 | 225 | 7.8 | 10.4 | 0.00 | 0.00 | 0.00 | 80 | 1029.0 |
| 20260506113717 | 59 | 223 | 4.3 | 6.1 | 0.00 | 0.00 | 0.00 | 80 | 1028.9 |
| 20260506112814 | 59 | 225 | 6.1 | 7.8 | 0.00 | 0.00 | 0.00 | 80 | 1028.9 |
| 20260506111815 | 59 | 225 | 4.3 | 7.0 | 0.00 | 0.00 | 0.00 | 80 | 1028.9 |
| 20260506105914 | 60 | 225 | 7.0 | 9.6 | 0.00 | 0.00 | 0.00 | 79 | 1028.6 |
| 20260506104915 | 60 | 225 | 6.1 | 7.8 | 0.00 | 0.00 | 0.00 | 78 | 1028.4 |
| 20260506104014 | 60 | 225 | 6.1 | 9.6 | 0.00 | 0.00 | 0.00 | 77 | 1028.3 |
| 20260506103016 | 60 | 225 | 7.8 | 10.4 | 0.00 | 0.00 | 0.00 | 77 | 1028.1 |
| 20260506102114 | 60 | 226 | 7.0 | 8.7 | 0.00 | 0.00 | 0.00 | 77 | 1028.1 |
| 20260506101116 | 60 | 228 | 6.1 | 8.7 | 0.00 | 0.00 | 0.00 | 77 | 1028.1 |
| 20260506095213 | 60 | 216 | 5.2 | 9.6 | 0.00 | 0.00 | 0.00 | 76 | 1028.0 |
| 20260506094215 | 60 | 225 | 6.1 | 8.7 | 0.00 | 0.00 | 0.00 | 76 | 1028.0 |
| 20260506093216 | 61 | 230 | 5.2 | 6.1 | 0.00 | 0.00 | 0.00 | 75 | 1028.1 |
| 20260506092314 | 61 | 229 | 7.0 | 9.6 | 0.00 | 0.00 | 0.00 | 75 | 1027.9 |
| 20260506091314 | 61 | 224 | 6.1 | 9.6 | 0.00 | 0.00 | 0.00 | 75 | 1027.9 |
| 20260506090414 | 61 | 225 | 4.3 | 7.8 | 0.00 | 0.00 | 0.00 | 75 | 1027.9 |
| 20260506085416 | 61 | 228 | 6.1 | 7.0 | 0.00 | 0.00 | 0.00 | 75 | 1028.0 |
| 20260506084414 | 61 | 228 | 7.0 | 9.6 | 0.00 | 0.00 | 0.00 | 75 | 1028.0 |
| 20260506083416 | 61 | 230 | 5.2 | 7.0 | 0.00 | 0.00 | 0.00 | 75 | 1028.1 |
| 20260506082514 | 61 | 225 | 4.3 | 6.1 | 0.00 | 0.00 | 0.00 | 74 | 1027.9 |
| 20260506081516 | 61 | 225 | 5.2 | 6.1 | 0.00 | 0.00 | 0.00 | 74 | 1027.8 |
| 20260506073515 | 61 | 232 | 6.1 | 7.8 | 0.00 | 0.00 | 0.00 | 74 | 1027.5 |
| 20260506072516 | 61 | 225 | 6.1 | 7.8 | 0.00 | 0.00 | 0.00 | 74 | 1027.5 |
| 20260506070616 | 61 | 225 | 4.3 | 6.1 | 0.00 | 0.00 | 0.00 | 73 | 1027.5 |
| 20260506061620 | 61 | 239 | 7.8 | 10.4 | 0.00 | 0.00 | 0.00 | 73 | 1027.2 |
| 20260506050722 | 61 | 225 | 7.8 | 9.6 | 0.00 | 0.00 | 0.00 | 74 | 1026.9 |
| 20260506044723 | 61 | 233 | 7.0 | 9.6 | 0.00 | 0.00 | 0.00 | 73 | 1026.7 |
| 20260506043721 | 61 | 226 | 6.1 | 10.4 | 0.00 | 0.00 | 0.00 | 73 | 1026.4 |
| 20260506042722 | 61 | 229 | 7.8 | 10.4 | 0.00 | 0.00 | 0.00 | 73 | 1026.4 |
| 20260506041721 | 61 | 232 | 7.0 | 10.4 | 0.00 | 0.00 | 0.00 | 73 | 1026.3 |
| 20260506040721 | 61 | 227 | 7.0 | 9.6 | 0.00 | 0.00 | 0.00 | 72 | 1026.4 |
| 20260506035723 | 61 | 225 | 7.0 | 8.7 | 0.00 | 0.00 | 0.00 | 72 | 1026.2 |
| 20260506034721 | 61 | 223 | 7.8 | 10.4 | 0.00 | 0.00 | 0.00 | 73 | 1026.1 |
| 20260506033723 | 61 | 224 | 6.1 | 8.7 | 0.00 | 0.00 | 0.00 | 73 | 1026.0 |
| 20260506032820 | 61 | 235 | 10.4 | 14.8 | 0.00 | 0.00 | 0.00 | 71 | 1025.8 |
| 20260506031823 | 61 | 225 | 7.8 | 15.6 | 0.00 | 0.00 | 0.00 | 72 | 1025.8 |